Location: Borowce
(50.8255°N, 19.6209°E)
Time: 22:52:45
(UTC+00:00)

Cosmos 1697 Rocket - Pass Details

Date: 19 May 2025
Orbit: 830 x 844 km, 71.0° (Epoch: 16 June)

Event Time Altitude Azimuth Distance (km) Brightness Sun altitude
Rises 19:34:21 0° 330° (NNW) 3,407 7.8 -8.5°
Reaches altitude 10° 19:36:48 10° 331° (NNW) 2,470 6.6 -8.8°
Maximum altitude 19:42:30 84° 60° (ENE) 855 2.7 -9.4°
Enters shadow 19:47:44 12° 149° (SSE) 2,297 4.3 -9.9°
